Location: T�chigga el Be�da
(16.4766°N, 9.3887°W)
Time: 06:36:01
(UTC+00:00)

Cosmos 1891 Rocket - Pass Details

Date: 27 February 2020
Orbit: 934 x 1018 km, 82.9° (Epoch: 06 April)

Event Time Altitude Azimuth Distance (km) Brightness Sun altitude
Rises 19:13:03 0° 179° (S) 3,598 7.6 -7.8°
Reaches altitude 10° 19:15:30 10° 178° (S) 2,663 6.9 -8.3°
Maximum altitude 19:21:35 77° 93° (E) 988 4.4 -9.8°
Drops below altitude 10° 19:27:48 10° 8° (N) 2,722 6.7 -11.3°
Sets 19:30:20 0° 7° (N) 3,683 7.4 -11.9°
